When you browse on this site, cookies collect data to enhance your experience and personalize the content and advertising you see.
Visit our Privacy Policy to learn more. By continuing to use the site, you agree to this use of cookies and data.
  • In Hungary
  • List of Countries
  • For 7 days
  • Water Temperature
  • Satellite Maps
  • Weather Map
  • News
  • Weather Widgets
  • user-avatar
    Login

    Hourly Weather New Albany

    Today, 18 July, Thursday

    Time Temperature Precipitation Wind Pressure Humidity
    00:00 +26°C° 0 mm 1 mps 744 mmHg 91%
    01:00 +26°C° 0.4 mm 1 mps 744 mmHg 91%
    02:00 +25°C° 0.4 mm 1 mps 743 mmHg 92%
    03:00 +25°C° 0.4 mm 1 mps 743 mmHg 92%
    04:00 +24°C° 0.2 mm 0 mps 743 mmHg 91%
    05:00 +24°C° 0.2 mm 0 mps 744 mmHg 91%
    06:00 +24°C° 0.2 mm 0 mps 744 mmHg 91%
    07:00 +28°C° 0 mm 1 mps 744 mmHg 86%
    08:00 +29°C° 0 mm 1 mps 744 mmHg 81%
    09:00 +31°C° 0 mm 1 mps 744 mmHg 76%
    10:00 +32°C° 0.3 mm 2 mps 744 mmHg 72%
    11:00 +34°C° 0.3 mm 2 mps 744 mmHg 68%
    12:00 +35°C° 0.3 mm 2 mps 744 mmHg 64%
    13:00 +35°C° 0.7 mm 2 mps 743 mmHg 64%
    14:00 +35°C° 0.7 mm 2 mps 743 mmHg 64%
    15:00 +35°C° 0.7 mm 2 mps 743 mmHg 65%
    16:00 +34°C° 0.2 mm 2 mps 743 mmHg 68%
    17:00 +32°C° 0.2 mm 2 mps 743 mmHg 72%
    18:00 +31°C° 0.2 mm 2 mps 743 mmHg 76%
    19:00 +30°C° 0 mm 3 mps 743 mmHg 79%
    20:00 +29°C° 0 mm 3 mps 743 mmHg 81%
    21:00 +28°C° 0 mm 3 mps 743 mmHg 84%
    22:00 +28°C° 0 mm 3 mps 743 mmHg 84%
    23:00 +27°C° 0 mm 3 mps 743 mmHg 85%

    Tomorrow, 19 July, Friday

    Time Temperature Precipitation Wind Pressure Humidity
    00:00 +26°C° 0 mm 3 mps 743 mmHg 85%
    01:00 +26°C° 0 mm 3 mps 743 mmHg 88%
    02:00 +26°C° 0 mm 3 mps 743 mmHg 91%
    03:00 +26°C° 0 mm 3 mps 743 mmHg 94%
    04:00 +26°C° 0 mm 3 mps 743 mmHg 93%
    05:00 +26°C° 0 mm 3 mps 744 mmHg 93%
    06:00 +27°C° 0 mm 3 mps 744 mmHg 93%
    07:00 +28°C° 0 mm 3 mps 744 mmHg 89%
    08:00 +29°C° 0 mm 3 mps 744 mmHg 85%
    09:00 +30°C° 0 mm 3 mps 745 mmHg 81%
    10:00 +33°C° 0 mm 3 mps 744 mmHg 75%
    11:00 +34°C° 0 mm 3 mps 744 mmHg 69%
    12:00 +36°C° 0 mm 3 mps 744 mmHg 62%
    13:00 +36°C° 0 mm 3 mps 744 mmHg 62%
    14:00 +36°C° 0 mm 3 mps 744 mmHg 61%
    15:00 +37°C° 0 mm 4 mps 744 mmHg 61%
    16:00 +36°C° 0 mm 3 mps 744 mmHg 65%
    17:00 +34°C° 0 mm 3 mps 743 mmHg 70%
    18:00 +33°C° 0 mm 3 mps 743 mmHg 74%
    19:00 +31°C° 0 mm 2 mps 744 mmHg 77%
    20:00 +30°C° 0 mm 2 mps 744 mmHg 81%
    21:00 +29°C° 0 mm 2 mps 744 mmHg 84%
    22:00 +28°C° 0 mm 2 mps 744 mmHg 86%
    23:00 +28°C° 0 mm 2 mps 744 mmHg 87%

    Day after tomorrow, 20 July, Saturday

    Time Temperature Precipitation Wind Pressure Humidity
    00:00 +27°C° 0 mm 2 mps 744 mmHg 88%
    01:00 +27°C° 0 mm 2 mps 744 mmHg 89%
    02:00 +27°C° 0 mm 2 mps 744 mmHg 90%
    03:00 +26°C° 0 mm 2 mps 744 mmHg 91%
    04:00 +27°C° 0 mm 2 mps 744 mmHg 91%
    05:00 +27°C° 0 mm 2 mps 744 mmHg 90%
    06:00 +27°C° 0 mm 2 mps 744 mmHg 90%
    07:00 +29°C° 0 mm 2 mps 744 mmHg 84%
    08:00 +30°C° 0 mm 3 mps 745 mmHg 79%
    09:00 +33°C° 0 mm 3 mps 745 mmHg 73%
    10:00 +34°C° 0 mm 3 mps 745 mmHg 69%
    11:00 +35°C° 0 mm 3 mps 745 mmHg 64%
    12:00 +36°C° 0 mm 3 mps 745 mmHg 60%
    13:00 +36°C° 0.1 mm 3 mps 744 mmHg 60%
    14:00 +36°C° 0.1 mm 3 mps 744 mmHg 59%
    15:00 +36°C° 0.1 mm 3 mps 743 mmHg 59%
    16:00 +35°C° 0.1 mm 2 mps 743 mmHg 63%
    17:00 +34°C° 0.1 mm 2 mps 743 mmHg 68%
    18:00 +32°C° 0.1 mm 2 mps 743 mmHg 72%
    19:00 +31°C° 0 mm 2 mps 743 mmHg 75%
    20:00 +30°C° 0 mm 2 mps 743 mmHg 78%
    21:00 +29°C° 0 mm 2 mps 743 mmHg 81%
    22:00 +28°C° 0.7 mm 2 mps 743 mmHg 83%
    23:00 +28°C° 0.7 mm 2 mps 743 mmHg 85%

    21 July, Sunday

    Time Temperature Precipitation Wind Pressure Humidity
    00:00 +27°C° 0.7 mm 2 mps 743 mmHg 87%
    01:00 +27°C° 0.4 mm 2 mps 743 mmHg 88%
    02:00 +26°C° 0.4 mm 2 mps 743 mmHg 89%
    03:00 +26°C° 0.4 mm 2 mps 743 mmHg 90%
    04:00 +26°C° 0.1 mm 2 mps 743 mmHg 90%
    05:00 +26°C° 0.1 mm 2 mps 743 mmHg 91%
    06:00 +26°C° 0.1 mm 3 mps 743 mmHg 91%
    07:00 +28°C° 0.4 mm 3 mps 743 mmHg 87%
    08:00 +29°C° 0.4 mm 3 mps 744 mmHg 83%
    09:00 +32°C° 0.4 mm 4 mps 744 mmHg 79%
    10:00 +32°C° 0.4 mm 4 mps 743 mmHg 75%
    11:00 +33°C° 0.4 mm 4 mps 743 mmHg 72%
    12:00 +34°C° 0.4 mm 4 mps 743 mmHg 68%
    13:00 +34°C° 0.3 mm 4 mps 742 mmHg 67%
    14:00 +34°C° 0.3 mm 4 mps 742 mmHg 66%
    15:00 +35°C° 0.3 mm 3 mps 742 mmHg 65%
    16:00 +33°C° 0.5 mm 4 mps 742 mmHg 70%
    17:00 +32°C° 0.5 mm 4 mps 742 mmHg 75%
    18:00 +30°C° 0.5 mm 4 mps 742 mmHg 79%
    19:00 +29°C° 0.5 mm 4 mps 742 mmHg 82%
    20:00 +28°C° 0.5 mm 4 mps 742 mmHg 84%
    21:00 +27°C° 0.5 mm 4 mps 742 mmHg 86%
    22:00 +26°C° 0 mm 4 mps 742 mmHg 88%
    23:00 +25°C° 0 mm 4 mps 742 mmHg 90%

    22 July, Monday

    Time Temperature Precipitation Wind Pressure Humidity
    00:00 +23°C° 0 mm 4 mps 742 mmHg 92%
    01:00 +23°C° 0.1 mm 4 mps 742 mmHg 92%
    02:00 +22°C° 0.1 mm 4 mps 742 mmHg 92%
    03:00 +22°C° 0.1 mm 3 mps 742 mmHg 91%
    04:00 +21°C° 0 mm 4 mps 743 mmHg 90%
    05:00 +21°C° 0 mm 4 mps 743 mmHg 88%
    06:00 +20°C° 0 mm 4 mps 744 mmHg 86%
    07:00 +22°C° 0 mm 4 mps 744 mmHg 82%
    08:00 +23°C° 0 mm 4 mps 745 mmHg 77%
    09:00 +25°C° 0 mm 4 mps 745 mmHg 73%
    10:00 +26°C° 0 mm 4 mps 745 mmHg 69%
    11:00 +27°C° 0 mm 5 mps 745 mmHg 66%
    12:00 +28°C° 0 mm 5 mps 746 mmHg 62%
    13:00 +28°C° 0 mm 5 mps 746 mmHg 62%
    14:00 +28°C° 0 mm 5 mps 745 mmHg 62%
    15:00 +27°C° 0 mm 5 mps 745 mmHg 62%
    16:00 +26°C° 0 mm 5 mps 745 mmHg 65%
    17:00 +25°C° 0 mm 4 mps 746 mmHg 68%
    18:00 +23°C° 0 mm 4 mps 746 mmHg 70%
    19:00 +21°C° 0 mm 4 mps 746 mmHg 72%
    20:00 +20°C° 0 mm 3 mps 747 mmHg 74%
    21:00 +19°C° 0 mm 3 mps 747 mmHg 75%
    22:00 +19°C° 0 mm 3 mps 747 mmHg 78%
    23:00 +18°C° 0 mm 3 mps 747 mmHg 80%

    23 July, Tuesday

    Time Temperature Precipitation Wind Pressure Humidity
    00:00 +17°C° 0 mm 2 mps 747 mmHg 83%
    01:00 +17°C° 0 mm 2 mps 747 mmHg 84%
    02:00 +17°C° 0 mm 2 mps 747 mmHg 86%
    03:00 +16°C° 0 mm 2 mps 747 mmHg 87%
    04:00 +16°C° 0 mm 2 mps 748 mmHg 86%
    05:00 +17°C° 0 mm 2 mps 748 mmHg 85%
    06:00 +17°C° 0 mm 2 mps 748 mmHg 84%
    07:00 +19°C° 0 mm 3 mps 748 mmHg 78%
    08:00 +21°C° 0 mm 3 mps 748 mmHg 72%
    09:00 +24°C° 0 mm 3 mps 749 mmHg 66%
    10:00 +25°C° 0 mm 3 mps 749 mmHg 62%
    11:00 +26°C° 0 mm 3 mps 748 mmHg 58%
    12:00 +27°C° 0 mm 3 mps 748 mmHg 54%
    13:00 +27°C° 0 mm 3 mps 748 mmHg 54%
    14:00 +27°C° 0 mm 3 mps 748 mmHg 55%
    15:00 +27°C° 0 mm 4 mps 747 mmHg 55%
    16:00 +27°C° 0 mm 3 mps 747 mmHg 59%
    17:00 +26°C° 0 mm 3 mps 747 mmHg 64%
    18:00 +25°C° 0 mm 2 mps 747 mmHg 69%
    19:00 +24°C° 0 mm 2 mps 748 mmHg 72%
    20:00 +21°C° 0 mm 2 mps 748 mmHg 75%
    21:00 +20°C° 0 mm 2 mps 748 mmHg 78%
    22:00 +20°C° 0 mm 2 mps 748 mmHg 81%
    23:00 +19°C° 0 mm 2 mps 748 mmHg 83%
    Show more